This is the latest recevied weather packets stored in our database for station/object KC1DMA. If no packets are shown the sender has not sent any weather packets the latest 10 day(s).
| Time | Temp. | Humidity | Pressure | Rain* | Wind** | Luminosity | Snow |
|---|---|---|---|---|---|---|---|
| 1778002793 | 23.33° C | 55% | 1011.3 hPa | - | - | 817 W/m² | - |
| 1778002484 | 23.89° C | 55% | 1011.4 hPa | - | - | 821 W/m² | - |
| 1778002181 | 23.33° C | 55% | 1011.3 hPa | - | - | 824 W/m² | - |
| 1778001880 | 22.78° C | 55% | 1011.5 hPa | - | - | 826 W/m² | - |
| 1778001578 | 23.33° C | 54% | 1011.4 hPa | - | - | 831 W/m² | - |
| 1778001276 | 22.78° C | 56% | 1011.3 hPa | - | - | 832 W/m² | - |
| 1778000972 | 22.78° C | 55% | 1011 hPa | - | - | 833 W/m² | - |
| 1778000668 | 23.33° C | 54% | 1011.3 hPa | - | - | 837 W/m² | - |
| 1778000364 | 23.33° C | 55% | 1011.8 hPa | - | - | 835 W/m² | - |
| 1778000060 | 22.78° C | 57% | 1011.4 hPa | - | - | 835 W/m² | - |
| 1777999756 | 22.78° C | 55% | 1011.6 hPa | - | - | 834 W/m² | - |
| 1777999453 | 22.22° C | 59% | 1011.8 hPa | - | - | 834 W/m² | - |
| 1777999151 | 22.78° C | 56% | 1011.6 hPa | - | - | 833 W/m² | - |
| 1777998849 | 22.78° C | 58% | 1011.9 hPa | - | - | 833 W/m² | - |
| 1777998548 | 21.67° C | 58% | 1011.9 hPa | - | - | 827 W/m² | - |
| 1777998243 | 21.67° C | 58% | 1011.9 hPa | - | - | 827 W/m² | - |
| 1777997940 | 21.67° C | 58% | 1012.1 hPa | - | - | 827 W/m² | - |
| 1777997637 | 22.22° C | 57% | 1012.3 hPa | - | - | 824 W/m² | - |
| 1777997335 | 22.22° C | 57% | 1012.1 hPa | - | - | 819 W/m² | - |
| 1777997033 | 22.22° C | 57% | 1012.2 hPa | - | - | 817 W/m² | - |
| 1777996730 | 21.67° C | 57% | 1012.2 hPa | - | - | 814 W/m² | - |
| 1777996425 | 21.67° C | 58% | 1012.1 hPa | - | - | 810 W/m² | - |
| 1777996122 | 21.67° C | 55% | 1012.3 hPa | - | - | 807 W/m² | - |
| 1777995818 | 22.22° C | 56% | 1012.6 hPa | - | - | 802 W/m² | - |
| 1777995514 | 21.67° C | 58% | 1012.6 hPa | - | - | 787 W/m² | - |
* Rain since midnight (hover to see other rain measurements)
** Current wind speed in m/s (hover to see current wind gust speed)